{"data":{"norad_id":64392,"intl_designator":"2025-127Y","name":"STARLINK-33802","alt_names":[],"object_type":"PAYLOAD","status":"ACTIVE","operator":null,"country":"US","launch_date":"2025-06-13","launch_site_code":"AFETR","launch_vehicle":null,"mission":null,"orbit_class":"UNKNOWN","rcs_meters":null,"size_class":null,"mass_kg":null,"dimensions":null,"purposes":["comms"],"wikipedia_slug":null,"has_3d_model":false,"image_url":null,"decayed_at":null,"tle_current":{"epoch":"2026-09-20T02:04:14.106432Z","epoch_age_seconds":170888,"freshness":"FRESH","line1":"1 64392U 25127Y   26263.08627438  .00026127  00000+0  95512-3 0  9990","line2":"2 64392  42.9985 162.2648 0001302 268.9890  91.0812 15.27596322 72248","mean_motion":15.27596322,"eccentricity":0.0001302,"inclination_deg":42.9985,"raan_deg":162.2648,"arg_perigee_deg":268.989,"mean_anomaly_deg":91.0812,"bstar":0.00095512,"rev_number":7224,"period_min":94.26574149607,"perigee_km":482.10690246864,"apogee_km":483.89354260139,"semimajor_km":6861.137222535,"source":"CELESTRAK","updated_at":"2026-09-21T09:00:35.345269Z"}}}